2024-170B (61196 NORAD) Tracking and Keplerian Element Data

This shows tracking and keplerian element data for the satellite.

Feedback or suggestion? Click here.




ElementValue
Catalog61196
Name2024-170B
Epoch Orbit316
Epoch Day286.85852295
Epoch Year2024
RAAN357.1571
Inclination44.8594
Eccentricity0.0006283
Argument of Perigee21.0012
Mean Anonmoly339.1082
Mean Motion14.13274689
Decay Rate1.612E-05
L11 61196U 24170B 24286.85852295 .00001612 00000+0 92357-3 0 9991
L22 61196 44.8594 357.1571 0006283 21.0012 339.1082 14.13274689 3164



Live tracking and technical data element details for 2024-170B (NORAD 61196). 2024-170B can be tracked NOW for your location showing map with azimuth and elevation plus other details from your city location.







IsCatalogInMostPopularTable: catalog: 61196, numindb: 24
Update: records affected: 1



GetName: 61196 2024-170B

Hit Count: updated at: Wed, 04 Dec 2024 10:24:25 GMT